Weather in Ak-Erik

Russia / Tyva Republic     50°30′52″N   94°37′01″E
temp.,
°C
wind,
m/s
gust,
m/s
humid.,
%
clouds,
%
prec.,
mm/h
press.,
hPa
HPBL,
m
5 march, fri
fri501:00−17ese12730 0.0 103220
04:00−18ese22740 0.0 103220
07:00−18ese22700 0.0 103220
10:00−14ese23703 0.0 1030129
13:00−10e236439 0.0 1028287
16:00−9nw117699 0.0 1025138
19:00−13w3383100 0.0 102842
22:00−13wsw1188100 0.1 103021
6 march, sat
sat601:00−17e229088 0.1 103320
04:00−17ese228425 0.0 103420
07:00−18e118420 0.0 103520
10:00−13nw00780 0.0 103436
13:00−10w11770 0.0 1031183
16:00−9w22860 0.0 1027168
19:00−15w12962 0.0 102820
22:00−18w119938 0.0 102820
7 march, sun
sun701:00−19w019949 0.0 102720
04:00−19w0110055 0.0 102620
07:00−20w0110050 0.0 102820
10:00−15wsw119331 0.0 102752
13:00−12w108342 0.0 1026209
16:00−10w218621 0.0 1025201
19:00−15w129455 0.0 102720
22:00−17ssw1197100 0.0 102920
8 march, mon
mon801:00−19sse019978 0.0 103020
04:00−19se019634 0.0 103020
07:00−20wsw019718 0.0 103220
10:00−15wsw119119 0.0 103059
13:00−12wnw118734 0.0 1028218
16:00−11w219083 0.0 1026237
19:00−16wnw129980 0.0 102720
22:00−18ssw1110066 0.0 102720
9 march, tue
tue901:00−19nnw019961 0.0 102620
04:00−19w119844 0.0 102720
07:00−19ssw119753 0.0 102920
10:00−14ssw1190100 0.0 103098
13:00−11wnw2188100 0.0 1029229
16:00−9sw118581 0.0 1028189
19:00−15wnw119742 0.0 102920
22:00−17ene00960 0.0 103020